Theta_e
323 322 321 322 324 325 325 323 319 315 317 322 323 329 331 331 330 327 325 324 323 321 319 320 321 322 322 323 324 323 324 323 324 325 325 324 320 319
326 324 324 323 323 324 323 323 323 320 316 323 325 328 330 329 330 325 324 324 322 319 319 319 318 318 319 319 319 320 321 321 321 321 321 321 320 319
325 324 323 323 323 324 324 325 323 323 319 323 326 328 328 325 326 324 324 322 320 318 319 318 316 315 316 316 316 317 318 318 318 318 318 317 317 317
323 324 324 325 323 324 325 324 323 324 322 320 324 325 325 325 324 322 324 323 319 319 317 316 314 313 312 312 312 312 313 313 314 315 315 315 315 315
323 324 324 324 323 324 324 324 324 325 323 322 321 322 322 322 319 319 318 316 318 320 315 315 313 313 312 311 310 310 309 308 308 308 310 312 312 313
323 325 325 325 323 323 323 323 324 323 322 321 320 318 317 316 316 315 314 316 315 316 315 313 312 312 312 310 311 311 308 306 305 305 305 305 305 307
324 325 325 324 321 322 325 323 323 321 321 318 315 314 313 312 309 311 312 313 314 314 309 308 307 306 307 309 312 312 309 306 305 304 304 303 302 302
323 324 323 320 318 315 317 317 320 319 316 315 312 313 311 311 311 310 311 311 310 313 309 311 307 307 306 305 306 304 304 304 303 304 303 302 302 301
323 324 325 326 321 324 313 312 313 311 314 316 313 312 312 313 313 311 311 311 310 313 312 310 310 309 308 309 305 304 302 301 301 301 301 301 300 299
323 323 324 323 323 319 316 315 314 315 316 317 314 314 314 315 316 315 313 311 311 307 309 307 304 302 307 305 304 304 303 302 301 300 300 299 298 297
321 320 320 318 308 304 315 312 307 304 303 303 306 305 303 303 310 314 309 307 302 301 303 301 300 300 300 302 303 303 301 300 299 299 299 299 298 297
314 316 308 312 299 301 313 312 309 305 302 301 299 297 299 300 302 305 304 299 297 297 303 300 299 299 298 301 302 303 301 301 300 299 299 299 298 295
311 311 306 297 300 300 304 310 308 307 302 306 306 307 308 306 305 305 303 303 301 300 304 300 299 302 301 299 298 299 298 298 298 298 298 298 298 297
309 309 302 297 297 298 302 296 297 302 305 307 307 305 307 305 303 302 303 304 304 302 305 306 303 300 296 293 294 297 297 297 296 295 296 297 298 297
308 303 295 294 294 294 294 295 298 303 308 305 303 302 301 302 301 301 301 303 304 303 304 302 299 296 295 293 292 293 293 294 295 293 294 294 294 295
300 296 296 295 295 294 293 297 301 305 307 304 300 300 299 298 298 299 298 300 299 297 297 297 295 293 291 291 290 289 290 289 292 291 292 291 291 292
295 293 291 291 293 294 293 295 301 307 303 299 298 297 297 297 297 298 297 297 295 291 291 292 293 293 292 291 289 288 288 288 289 289 290 288 290 290
296 294 292 291 292 296 300 301 303 301 299 299 297 296 297 297 297 296 297 293 291 291 290 289 289 289 288 290 293 285 285 286 288 289 288 287 288 291
299 298 297 296 295 298 301 303 301 301 299 299 298 296 297 296 295 295 296 293 291 291 290 289 288 287 282 280 286 293 286 287 287 286 286 286 287 289
303 304 304 303 303 303 302 301 301 298 297 297 297 297 295 297 296 295 293 290 290 289 288 288 287 286 283 282 284 286 289 286 286 285 286 287 290 292
305 304 305 307 306 305 302 302 300 300 299 298 297 297 299 297 294 294 291 288 288 289 287 287 288 286 287 286 282 282 285 290 290 287 286 286 286 287
307 307 305 304 303 302 301 300 299 298 298 298 298 299 298 295 295 293 291 290 289 288 288 288 288 287 284 282 277 279 280 282 287 290 292 290 285 282
303 306 306 303 303 302 301 301 300 299 298 298 299 298 297 295 293 292 291 291 288 288 288 285 285 284 283 282 277 275 278 279 281 280 281 288 289 289
Wind_Speed
5 6 5 4 3 4 9 9 9 5 3 4 3 4 7 7 7 5 6 10 10 8 9 8 7 7 7 8 8 8 8 10 9 9 10 10 11 13
6 8 6 6 6 6 6 4 4 7 5 2 3 5 7 5 7 5 5 7 7 8 8 7 8 8 8 7 8 9 10 8 8 9 10 10 11 12
8 9 8 7 7 7 7 7 8 7 8 4 3 5 5 6 4 3 3 4 4 7 9 9 9 9 8 8 9 9 9 9 9 10 12 11 11 12
8 9 10 7 8 7 7 10 7 5 8 10 4 3 3 3 4 4 3 3 4 6 8 8 8 8 9 10 11 11 9 10 10 11 13 13 13 13
7 8 9 10 9 8 8 8 7 6 5 5 3 2 2 2 3 2 2 1 2 5 7 9 8 12 13 12 10 11 12 12 12 12 13 13 13 13
6 8 8 8 11 10 9 8 8 7 6 4 3 3 2 2 2 3 0 1 3 2 4 6 7 10 11 10 13 14 15 11 12 14 14 13 13 15
7 8 7 7 10 9 7 6 7 5 4 3 3 2 2 2 2 2 3 1 2 3 1 3 1 3 6 8 13 14 11 10 13 13 13 14 16 16
8 8 9 10 11 10 8 6 5 6 5 4 3 3 2 2 3 3 3 1 2 2 2 3 2 4 4 3 6 9 10 11 9 12 14 16 17 18
7 8 8 6 8 6 5 6 7 9 6 6 6 4 4 6 4 3 3 3 2 2 3 2 3 4 3 4 8 9 8 8 10 12 13 14 16 16
7 8 8 10 7 6 5 4 1 5 6 4 6 6 5 6 6 5 6 3 2 3 4 2 4 4 5 4 3 4 7 9 10 10 11 11 12 13
5 5 7 7 8 10 6 6 6 5 5 7 9 8 6 7 6 5 3 4 2 2 4 3 2 3 1 2 3 5 7 9 10 10 11 11 13 11
3 4 8 8 11 11 8 7 7 5 5 4 5 7 6 7 9 6 5 4 3 2 3 2 2 3 4 2 3 4 6 8 11 12 12 14 16 6
5 4 3 7 10 12 10 6 6 7 5 6 5 5 5 6 4 5 5 6 3 2 2 2 2 0 1 4 4 4 3 5 4 6 12 14 16 12
6 4 5 8 11 11 8 11 12 9 5 6 7 4 6 5 4 5 6 6 5 4 2 5 4 2 1 2 3 4 4 5 5 6 7 10 12 13
5 7 12 9 13 10 10 12 9 6 6 7 6 4 3 4 4 4 6 6 8 11 9 6 4 2 2 0 3 4 5 5 8 7 8 9 8 9
8 6 6 6 8 7 6 5 5 5 7 8 5 4 2 3 3 1 3 3 6 5 5 6 6 4 2 3 2 3 4 4 7 7 7 7 8 6
8 4 3 3 4 3 3 4 4 6 6 5 5 5 4 3 3 3 3 5 5 2 3 5 6 6 4 3 4 4 6 5 7 9 9 8 9 7
4 4 4 4 5 5 5 4 3 6 6 6 5 5 6 6 7 4 5 5 5 3 3 3 4 4 3 3 7 3 3 5 8 9 9 8 9 10
4 4 6 7 5 6 6 5 5 6 7 7 7 5 6 5 5 3 5 5 5 4 3 2 4 4 6 5 4 4 7 8 7 7 5 5 9 11
4 6 6 6 6 6 6 6 7 6 4 6 6 5 5 7 7 8 5 5 5 3 3 3 4 2 2 2 3 4 12 6 8 8 9 6 8 15
7 5 5 6 5 7 7 8 10 9 8 7 6 7 7 8 7 5 5 6 6 3 4 2 2 4 1 2 4 4 5 14 13 10 10 8 10 10
11 9 6 6 7 9 9 10 9 9 8 7 7 8 7 7 6 8 5 5 4 4 3 2 1 2 3 2 2 5 4 4 9 14 13 10 8 9
9 8 8 7 8 9 10 11 11 10 9 8 8 6 7 8 9 5 5 5 5 4 2 2 2 3 2 2 3 3 6 5 6 5 4 14 18 18
Wind_Direction
97 97 93 77 68 102 136 145 152 145 124 108 124 151 139 148 154 146 165 170 175 176 181 181 192 199 201 213 226 235 235 235 232 226 226 237 253 259
112 109 92 95 91 94 106 100 82 124 115 105 90 135 122 124 159 172 168 169 174 182 187 190 204 213 216 220 231 241 239 239 242 239 239 234 241 251
114 117 111 111 106 99 99 96 89 88 115 92 83 111 104 133 158 161 157 183 192 195 202 206 212 220 227 232 240 244 242 240 237 234 248 248 247 250
110 124 123 110 103 108 104 100 102 95 122 118 105 98 95 141 162 167 181 188 198 217 223 225 229 235 239 240 237 240 243 246 242 241 241 244 248 253
124 129 131 130 118 113 104 109 109 106 89 110 98 90 113 149 129 131 166 248 248 233 228 235 233 237 233 239 248 246 242 243 243 248 250 249 252 256
112 121 135 133 129 130 117 120 117 110 114 113 108 111 116 96 112 147 159 51 258 236 227 231 221 243 249 249 249 249 243 247 251 253 256 255 250 247
111 117 111 119 115 114 129 118 115 124 135 132 107 114 144 113 155 157 155 240 286 234 253 257 254 266 262 245 255 261 265 269 270 276 285 275 263 257
119 113 121 116 111 121 118 117 149 143 151 144 147 148 165 147 143 166 152 114 332 48 212 296 170 258 275 282 295 313 303 296 297 284 280 276 275 265
130 132 134 141 150 146 155 220 213 193 181 148 158 171 173 197 139 154 175 170 198 322 191 320 6 360 343 347 349 315 294 285 292 291 294 294 285 277
141 146 149 168 173 158 176 220 206 153 168 185 170 173 190 172 180 169 172 154 59 21 27 73 343 356 13 8 32 2 337 325 311 298 283 278 278 273
136 154 145 160 184 174 157 136 95 71 43 50 130 134 87 58 107 116 84 91 53 337 355 94 338 290 323 270 282 304 325 327 326 322 312 308 304 307
127 165 169 158 166 171 148 147 128 166 131 90 60 60 78 68 60 78 135 112 134 33 292 67 332 37 334 293 319 333 352 345 327 323 335 334 327 323
152 151 142 152 156 165 158 149 156 141 116 111 97 87 77 77 86 88 94 113 127 139 246 121 135 15 351 320 311 351 341 325 352 349 358 348 337 338
161 157 149 173 126 129 122 131 128 119 101 82 89 84 100 86 75 82 74 63 59 106 355 55 59 45 290 298 291 318 340 347 14 4 351 334 326 336
154 155 141 128 108 86 107 116 104 100 115 110 111 88 86 131 115 81 72 87 76 58 44 48 101 103 92 176 307 340 332 331 10 351 345 339 334 332
103 110 121 107 81 112 99 83 106 127 132 128 122 129 128 68 74 70 86 83 81 61 29 47 64 70 40 42 78 331 334 339 338 338 332 329 326 320
112 97 104 103 127 132 93 101 103 122 121 126 128 115 108 128 129 124 107 84 94 112 22 4 9 41 47 68 25 12 343 335 333 333 336 326 323 320
105 140 173 169 171 161 150 137 132 131 138 134 132 142 148 141 122 106 117 110 112 86 64 11 11 22 20 21 85 17 334 331 332 330 324 319 312 318
145 171 179 180 173 165 164 151 150 162 148 150 150 143 128 103 83 98 105 100 93 95 64 39 39 45 27 359 300 31 355 327 323 316 315 310 308 310
171 179 190 175 166 164 157 153 154 143 142 141 139 140 126 137 141 126 118 116 107 101 90 48 57 67 93 255 290 298 322 318 327 321 326 314 297 284
214 200 179 169 162 160 157 156 156 159 159 154 144 139 143 138 119 87 104 112 119 120 100 106 216 195 239 26 351 320 302 324 322 322 322 327 337 324
203 199 180 160 159 159 156 154 151 156 158 149 147 144 132 119 116 121 135 130 117 107 122 161 15 43 43 69 273 289 291 298 305 317 322 328 332 326
202 185 166 159 160 161 157 160 160 158 157 147 142 131 131 139 120 135 131 116 112 103 108 63 15 41 348 267 244 282 311 303 328 322 303 332 335 331